| time (UTC) | temp F | wind direction | speed MPH | gust MPH | rain 1hr in | rain 24hr in | rain mn in | humidity % | barometer mb |
| 20260906182703 | 89 | 98 | 1.0 | 4.0 | 0.00 | 0.00 | 0.00 | 36 | 1021.0 |
| 20260906181803 | 90 | 254 | 0.0 | 2.0 | 0.00 | 0.00 | 0.00 | 36 | 1021.2 |
| 20260906180903 | 90 | 126 | 0.0 | 3.0 | 0.00 | 0.00 | 0.00 | 36 | 1021.4 |
| 20260906180003 | 89 | 123 | 1.0 | 3.0 | 0.00 | 0.00 | 0.00 | 36 | 1021.6 |
| 20260906175617 | 89 | 117 | 1.0 | 5.0 | 0.00 | 0.00 | 0.00 | 38 | 1021.7 |
| 20260906174503 | 88 | 158 | 1.0 | 2.0 | 0.00 | 0.00 | 0.00 | 36 | 1021.9 |
| 20260906173603 | 88 | 154 | 1.0 | 2.0 | 0.00 | 0.00 | 0.00 | 37 | 1021.9 |
| 20260906172703 | 87 | 95 | 0.0 | 2.0 | 0.00 | 0.00 | 0.00 | 39 | 1022.0 |
| 20260906172019 | 86 | 210 | 0.0 | 1.0 | 0.00 | 0.00 | 0.00 | 40 | 1022.1 |
| 20260906170903 | 86 | 245 | 0.0 | 2.0 | 0.00 | 0.00 | 0.00 | 39 | 1022.1 |
| 20260906170217 | 87 | 173 | 0.0 | 2.0 | 0.00 | 0.00 | 0.00 | 40 | 1022.2 |
| 20260906165403 | 87 | 122 | 0.0 | 3.0 | 0.00 | 0.00 | 0.00 | 40 | 1022.3 |
| 20260906164503 | 87 | 107 | 1.0 | 4.0 | 0.00 | 0.00 | 0.00 | 36 | 1022.2 |
| 20260906163603 | 87 | 123 | 0.0 | 3.0 | 0.00 | 0.00 | 0.00 | 40 | 1022.3 |
| 20260906162703 | 86 | 169 | 0.0 | 2.0 | 0.00 | 0.00 | 0.00 | 41 | 1022.4 |
| 20260906161803 | 86 | 106 | 1.0 | 4.0 | 0.00 | 0.00 | 0.00 | 37 | 1022.2 |
| 20260906161117 | 86 | 113 | 0.0 | 6.0 | 0.00 | 0.00 | 0.00 | 40 | 1022.2 |
| 20260906160003 | 86 | 104 | 0.0 | 3.0 | 0.00 | 0.00 | 0.00 | 37 | 1022.3 |
| 20260906155403 | 86 | 101 | 0.0 | 2.0 | 0.00 | 0.00 | 0.00 | 39 | 1022.3 |
| 20260906154503 | 85 | 107 | 0.0 | 2.0 | 0.00 | 0.00 | 0.00 | 41 | 1022.3 |
| 20260906153603 | 84 | 106 | 0.0 | 2.0 | 0.00 | 0.00 | 0.00 | 42 | 1022.2 |
| 20260906152703 | 83 | 100 | 0.0 | 3.0 | 0.00 | 0.00 | 0.00 | 42 | 1022.2 |
| 20260906151803 | 82 | 0 | 0.0 | 0.0 | 0.00 | 0.00 | 0.00 | 45 | 1022.2 |
| 20260906150903 | 81 | 0 | 0.0 | 0.0 | 0.00 | 0.00 | 0.00 | 45 | 1022.1 |
| 20260906150003 | 78 | 0 | 0.0 | 0.0 | 0.00 | 0.00 | 0.00 | 48 | 1022.2 |
| 20260906145616 | 77 | 0 | 0.0 | 0.0 | 0.00 | 0.00 | 0.00 | 50 | 1022.1 |
| 20260906144503 | 74 | 0 | 0.0 | 0.0 | 0.00 | 0.00 | 0.00 | 51 | 1022.0 |
| 20260906143603 | 72 | 0 | 0.0 | 0.0 | 0.00 | 0.00 | 0.00 | 56 | 1022.1 |
| 20260906142703 | 70 | 0 | 0.0 | 0.0 | 0.00 | 0.00 | 0.00 | 55 | 1022.0 |
| 20260906142017 | 69 | 305 | 0.0 | 2.0 | 0.00 | 0.00 | 0.00 | 59 | 1022.0 |
| 20260906140903 | 67 | 339 | 1.0 | 2.0 | 0.00 | 0.00 | 0.00 | 60 | 1021.8 |
| 20260906140003 | 66 | 300 | 1.0 | 3.0 | 0.00 | 0.00 | 0.00 | 61 | 1021.8 |
| 20260906135403 | 66 | 294 | 1.0 | 3.0 | 0.00 | 0.00 | 0.00 | 62 | 1021.7 |
| 20260906134507 | 65 | 290 | 1.0 | 3.0 | 0.00 | 0.00 | 0.00 | 65 | 1021.8 |
| 20260906133603 | 64 | 291 | 1.0 | 3.0 | 0.00 | 0.00 | 0.00 | 68 | 1021.7 |
| 20260906132703 | 63 | 296 | 1.0 | 3.0 | 0.00 | 0.00 | 0.00 | 71 | 1021.6 |
| 20260906132017 | 63 | 299 | 1.0 | 3.0 | 0.00 | 0.00 | 0.00 | 73 | 1021.4 |
| 20260906130903 | 63 | 300 | 1.0 | 2.0 | 0.00 | 0.00 | 0.00 | 74 | 1021.5 |
| 20260906130003 | 63 | 300 | 0.0 | 2.0 | 0.00 | 0.00 | 0.00 | 74 | 1021.4 |
| 20260906125403 | 63 | 300 | 0.0 | 2.0 | 0.00 | 0.00 | 0.00 | 74 | 1021.4 |
| 20260906124503 | 63 | 292 | 2.0 | 4.0 | 0.00 | 0.00 | 0.00 | 73 | 1021.4 |
| 20260906123603 | 63 | 286 | 1.0 | 3.0 | 0.00 | 0.00 | 0.00 | 73 | 1021.5 |
| 20260906122917 | 64 | 296 | 1.0 | 3.0 | 0.00 | 0.00 | 0.00 | 72 | 1021.5 |
| 20260906121803 | 64 | 303 | 1.0 | 3.0 | 0.00 | 0.00 | 0.00 | 72 | 1021.4 |
| 20260906120903 | 64 | 317 | 0.0 | 3.0 | 0.00 | 0.00 | 0.00 | 72 | 1021.3 |
| 20260906120003 | 64 | 0 | 0.0 | 0.0 | 0.00 | 0.00 | 0.00 | 72 | 1021.3 |
| 20260906115403 | 64 | 0 | 0.0 | 0.0 | 0.00 | 0.00 | 0.00 | 72 | 1021.2 |
| 20260906114503 | 64 | 0 | 0.0 | 0.0 | 0.00 | 0.00 | 0.00 | 72 | 1021.1 |
| 20260906113818 | 64 | 0 | 0.0 | 0.0 | 0.00 | 0.00 | 0.00 | 73 | 1021.1 |
| 20260906112703 | 64 | 0 | 0.0 | 0.0 | 0.00 | 0.00 | 0.00 | 72 | 1021.2 |
| 20260906112016 | 64 | 0 | 0.0 | 0.0 | 0.00 | 0.00 | 0.00 | 72 | 1021.2 |
| 20260906110903 | 64 | 0 | 0.0 | 0.0 | 0.00 | 0.00 | 0.00 | 72 | 1021.0 |
| 20260906110003 | 64 | 0 | 0.0 | 0.0 | 0.00 | 0.00 | 0.00 | 72 | 1021.0 |
| 20260906105403 | 65 | 0 | 0.0 | 0.0 | 0.00 | 0.00 | 0.00 | 72 | 1020.9 |
| 20260906104503 | 65 | 0 | 0.0 | 0.0 | 0.00 | 0.00 | 0.00 | 72 | 1021.0 |
| 20260906103603 | 65 | 317 | 0.0 | 2.0 | 0.00 | 0.00 | 0.00 | 71 | 1021.0 |
| 20260906102703 | 65 | 317 | 0.0 | 1.0 | 0.00 | 0.00 | 0.00 | 71 | 1021.0 |
| 20260906102016 | 65 | 317 | 0.0 | 2.0 | 0.00 | 0.00 | 0.00 | 70 | 1020.9 |
| 20260906100903 | 66 | 317 | 1.0 | 2.0 | 0.00 | 0.00 | 0.00 | 70 | 1020.9 |
| 20260906100219 | 66 | 0 | 0.0 | 0.0 | 0.00 | 0.00 | 0.00 | 70 | 1020.9 |
| 20260906095618 | 65 | 0 | 0.0 | 0.0 | 0.00 | 0.00 | 0.00 | 70 | 1021.1 |
| 20260906094503 | 66 | 0 | 0.0 | 0.0 | 0.00 | 0.00 | 0.00 | 69 | 1021.2 |
| 20260906093603 | 66 | 0 | 0.0 | 0.0 | 0.00 | 0.00 | 0.00 | 69 | 1021.3 |
| 20260906092703 | 66 | 61 | 0.0 | 1.0 | 0.00 | 0.00 | 0.00 | 69 | 1021.3 |
| 20260906091803 | 66 | 61 | 0.0 | 2.0 | 0.00 | 0.00 | 0.00 | 69 | 1021.3 |
| 20260906090903 | 66 | 63 | 0.0 | 1.0 | 0.00 | 0.00 | 0.00 | 69 | 1021.1 |
| 20260906090003 | 66 | 0 | 0.0 | 1.0 | 0.00 | 0.00 | 0.00 | 69 | 1021.2 |
| 20260906085403 | 66 | 311 | 0.0 | 1.0 | 0.00 | 0.00 | 0.00 | 68 | 1021.1 |
| 20260906084503 | 67 | 311 | 0.0 | 3.0 | 0.00 | 0.00 | 0.00 | 68 | 1021.1 |
| 20260906083603 | 67 | 311 | 1.0 | 3.0 | 0.00 | 0.00 | 0.00 | 68 | 1021.0 |
| 20260906082703 | 67 | 311 | 1.0 | 2.0 | 0.00 | 0.00 | 0.00 | 67 | 1021.1 |
| 20260906081803 | 67 | 311 | 0.0 | 2.0 | 0.00 | 0.00 | 0.00 | 67 | 1021.0 |
| 20260906080903 | 68 | 311 | 1.0 | 3.0 | 0.00 | 0.00 | 0.00 | 66 | 1020.9 |
| 20260906080003 | 68 | 297 | 1.0 | 3.0 | 0.00 | 0.00 | 0.00 | 66 | 1020.9 |
| 20260906075617 | 68 | 289 | 1.0 | 3.0 | 0.00 | 0.00 | 0.00 | 66 | 1020.9 |
| 20260906074503 | 68 | 279 | 1.0 | 4.0 | 0.00 | 0.00 | 0.00 | 66 | 1021.1 |
| 20260906073603 | 68 | 289 | 1.0 | 2.0 | 0.00 | 0.00 | 0.00 | 66 | 1021.1 |
| 20260906072916 | 68 | 289 | 1.0 | 4.0 | 0.00 | 0.00 | 0.00 | 67 | 1021.0 |
| 20260906071803 | 68 | 289 | 2.0 | 4.0 | 0.00 | 0.00 | 0.00 | 67 | 1021.1 |
| 20260906070903 | 67 | 295 | 2.0 | 4.0 | 0.00 | 0.00 | 0.00 | 66 | 1021.2 |
| 20260906070003 | 67 | 291 | 2.0 | 5.0 | 0.00 | 0.00 | 0.00 | 66 | 1021.1 |
| 20260906065617 | 67 | 289 | 1.0 | 4.0 | 0.00 | 0.00 | 0.00 | 66 | 1021.1 |
| 20260906064716 | 67 | 0 | 0.0 | 0.0 | 0.00 | 0.00 | 0.00 | 66 | 1021.1 |
| 20260906063603 | 67 | 58 | 0.0 | 1.0 | 0.00 | 0.00 | 0.00 | 66 | 1021.2 |
| 20260906062703 | 68 | 59 | 0.0 | 2.0 | 0.00 | 0.00 | 0.00 | 65 | 1021.2 |
| 20260906061803 | 68 | 75 | 0.0 | 2.0 | 0.00 | 0.00 | 0.00 | 64 | 1021.2 |
| 20260906060903 | 68 | 76 | 1.0 | 3.0 | 0.00 | 0.00 | 0.00 | 64 | 1021.2 |
| 20260906060217 | 69 | 75 | 1.0 | 3.0 | 0.00 | 0.00 | 0.00 | 63 | 1021.1 |
| 20260906055403 | 69 | 86 | 1.0 | 2.0 | 0.00 | 0.00 | 0.00 | 63 | 1021.1 |
| 20260906054503 | 70 | 0 | 0.0 | 0.0 | 0.00 | 0.00 | 0.00 | 62 | 1021.1 |
| 20260906053603 | 70 | 67 | 1.0 | 3.0 | 0.00 | 0.00 | 0.00 | 62 | 1021.1 |
| 20260906052703 | 70 | 66 | 1.0 | 3.0 | 0.00 | 0.00 | 0.00 | 62 | 1021.1 |
| 20260906051803 | 71 | 77 | 1.0 | 3.0 | 0.00 | 0.00 | 0.00 | 61 | 1020.9 |
| 20260906050903 | 71 | 56 | 0.0 | 3.0 | 0.00 | 0.00 | 0.00 | 60 | 1021.1 |
| 20260906050003 | 72 | 81 | 1.0 | 2.0 | 0.00 | 0.00 | 0.00 | 60 | 1021.0 |
| 20260906045403 | 72 | 103 | 1.0 | 2.0 | 0.00 | 0.00 | 0.00 | 60 | 1021.0 |
| 20260906044503 | 72 | 103 | 0.0 | 2.0 | 0.00 | 0.00 | 0.00 | 60 | 1021.1 |
| 20260906043603 | 72 | 0 | 0.0 | 0.0 | 0.00 | 0.00 | 0.00 | 59 | 1021.2 |
| 20260906042703 | 73 | 0 | 0.0 | 0.0 | 0.00 | 0.00 | 0.00 | 58 | 1021.2 |
| 20260906041803 | 73 | 103 | 0.0 | 1.0 | 0.00 | 0.00 | 0.00 | 58 | 1021.2 |
| 20260906040903 | 74 | 0 | 0.0 | 0.0 | 0.00 | 0.00 | 0.00 | 57 | 1021.2 |
| 20260906040003 | 74 | 103 | 0.0 | 1.0 | 0.00 | 0.00 | 0.00 | 56 | 1020.9 |
| 20260906035403 | 74 | 103 | 0.0 | 1.0 | 0.00 | 0.00 | 0.00 | 56 | 1021.2 |
| 20260906034503 | 75 | 117 | 0.0 | 2.0 | 0.00 | 0.00 | 0.00 | 55 | 1021.2 |
| 20260906033603 | 75 | 70 | 1.0 | 3.0 | 0.00 | 0.00 | 0.00 | 55 | 1021.1 |
| 20260906032703 | 75 | 74 | 1.0 | 4.0 | 0.00 | 0.00 | 0.00 | 55 | 1021.3 |
| 20260906031803 | 76 | 76 | 0.0 | 2.0 | 0.00 | 0.00 | 0.00 | 55 | 1021.1 |
| 20260906030903 | 76 | 76 | 0.0 | 2.0 | 0.00 | 0.00 | 0.00 | 54 | 1020.8 |
| 20260906030216 | 76 | 89 | 0.0 | 2.0 | 0.00 | 0.00 | 0.00 | 53 | 1020.5 |
| 20260906025616 | 77 | 164 | 1.0 | 3.0 | 0.00 | 0.00 | 0.00 | 53 | 1020.5 |
| 20260906024719 | 77 | 127 | 1.0 | 3.0 | 0.00 | 0.00 | 0.00 | 52 | 1020.1 |
| 20260906023818 | 78 | 83 | 1.0 | 4.0 | 0.00 | 0.00 | 0.00 | 52 | 1020.1 |
| 20260906022703 | 79 | 86 | 1.0 | 3.0 | 0.00 | 0.00 | 0.00 | 50 | 1019.9 |
| 20260906021803 | 80 | 56 | 0.0 | 3.0 | 0.00 | 0.00 | 0.00 | 49 | 1019.9 |
| 20260906021116 | 81 | 61 | 1.0 | 4.0 | 0.00 | 0.00 | 0.00 | 48 | 1019.7 |
| 20260906020003 | 82 | 20 | 2.0 | 9.0 | 0.00 | 0.00 | 0.00 | 42 | 1019.7 |
| 20260906015403 | 82 | 327 | 2.0 | 9.0 | 0.00 | 0.00 | 0.00 | 34 | 1019.5 |
| 20260906014503 | 82 | 317 | 1.0 | 4.0 | 0.00 | 0.00 | 0.00 | 33 | 1019.1 |
| 20260906013603 | 82 | 297 | 2.0 | 5.0 | 0.00 | 0.00 | 0.00 | 33 | 1019.0 |
| 20260906012703 | 83 | 295 | 2.0 | 6.0 | 0.00 | 0.00 | 0.00 | 32 | 1019.0 |
| 20260906011803 | 84 | 297 | 2.0 | 6.0 | 0.00 | 0.00 | 0.00 | 31 | 1018.8 |
| 20260906010903 | 84 | 298 | 2.0 | 4.0 | 0.00 | 0.00 | 0.00 | 32 | 1018.9 |
| 20260906010003 | 85 | 298 | 2.0 | 5.0 | 0.00 | 0.00 | 0.00 | 31 | 1019.1 |
| 20260906005403 | 85 | 294 | 2.0 | 6.0 | 0.00 | 0.00 | 0.00 | 31 | 1019.1 |
| 20260906004503 | 85 | 293 | 2.0 | 6.0 | 0.00 | 0.00 | 0.00 | 31 | 1019.2 |
| 20260906003603 | 86 | 295 | 3.0 | 8.0 | 0.00 | 0.00 | 0.00 | 30 | 1019.2 |
| 20260906002703 | 86 | 296 | 2.0 | 4.0 | 0.00 | 0.00 | 0.00 | 30 | 1019.3 |
| 20260906001803 | 86 | 292 | 1.0 | 4.0 | 0.00 | 0.00 | 0.00 | 30 | 1019.2 |
| 20260906000903 | 86 | 280 | 1.0 | 4.0 | 0.00 | 0.00 | 0.00 | 31 | 1019.1 |
| 20260906000003 | 86 | 297 | 1.0 | 3.0 | 0.00 | 0.00 | 0.00 | 32 | 1019.1 |
| 20260905235403 | 85 | 301 | 1.0 | 4.0 | 0.00 | 0.00 | 0.00 | 32 | 1019.1 |
| 20260905234503 | 85 | 292 | 1.0 | 3.0 | 0.00 | 0.00 | 0.00 | 33 | 1019.0 |
| 20260905233603 | 84 | 298 | 1.0 | 3.0 | 0.00 | 0.00 | 0.00 | 32 | 1018.9 |
| 20260905232703 | 85 | 297 | 1.0 | 2.0 | 0.00 | 0.00 | 0.00 | 31 | 1019.0 |
| 20260905231803 | 85 | 297 | 1.0 | 4.0 | 0.00 | 0.00 | 0.00 | 31 | 1018.9 |
| 20260905231119 | 85 | 301 | 2.0 | 5.0 | 0.00 | 0.00 | 0.00 | 31 | 1019.1 |
| 20260905230003 | 85 | 296 | 2.0 | 9.0 | 0.00 | 0.00 | 0.00 | 30 | 1019.1 |
| 20260905225403 | 85 | 294 | 3.0 | 9.0 | 0.00 | 0.00 | 0.00 | 30 | 1019.1 |
| 20260905224717 | 84 | 294 | 3.0 | 8.0 | 0.00 | 0.00 | 0.00 | 30 | 1019.1 |
| 20260905223603 | 84 | 298 | 2.0 | 8.0 | 0.00 | 0.00 | 0.00 | 32 | 1019.3 |
| 20260905222703 | 84 | 294 | 2.0 | 7.0 | 0.00 | 0.00 | 0.00 | 36 | 1019.2 |
| 20260905221803 | 84 | 296 | 3.0 | 9.0 | 0.00 | 0.00 | 0.00 | 31 | 1019.3 |
| 20260905221119 | 84 | 300 | 2.0 | 9.0 | 0.00 | 0.00 | 0.00 | 32 | 1019.3 |
| 20260905220003 | 84 | 297 | 3.0 | 8.0 | 0.00 | 0.00 | 0.00 | 34 | 1019.3 |
| 20260905215403 | 85 | 291 | 3.0 | 8.0 | 0.00 | 0.00 | 0.00 | 35 | 1019.4 |
| 20260905214503 | 86 | 291 | 5.0 | 11.0 | 0.00 | 0.00 | 0.00 | 32 | 1019.4 |
| 20260905213603 | 85 | 291 | 2.0 | 11.0 | 0.00 | 0.00 | 0.00 | 31 | 1019.4 |
| 20260905212916 | 85 | 296 | 3.0 | 9.0 | 0.00 | 0.00 | 0.00 | 31 | 1019.4 |
| 20260905211803 | 86 | 294 | 5.0 | 14.0 | 0.00 | 0.00 | 0.00 | 30 | 1019.5 |
| 20260905210903 | 88 | 285 | 3.0 | 9.0 | 0.00 | 0.00 | 0.00 | 28 | 1019.6 |
| 20260905210003 | 89 | 285 | 1.0 | 7.0 | 0.00 | 0.00 | 0.00 | 26 | 1019.4 |
| 20260905205403 | 90 | 289 | 1.0 | 3.0 | 0.00 | 0.00 | 0.00 | 26 | 1019.5 |
| 20260905204717 | 91 | 344 | 2.0 | 4.0 | 0.00 | 0.00 | 0.00 | 26 | 1019.6 |
| 20260905203603 | 92 | 77 | 2.0 | 8.0 | 0.00 | 0.00 | 0.00 | 24 | 1019.8 |
| 20260905202703 | 92 | 108 | 1.0 | 4.0 | 0.00 | 0.00 | 0.00 | 25 | 1019.6 |
| 20260905201803 | 92 | 74 | 3.0 | 8.0 | 0.00 | 0.00 | 0.00 | 26 | 1019.7 |
| 20260905200903 | 92 | 70 | 4.0 | 10.0 | 0.00 | 0.00 | 0.00 | 25 | 1019.7 |
| 20260905200217 | 91 | 74 | 2.0 | 4.0 | 0.00 | 0.00 | 0.00 | 26 | 1019.6 |
| 20260905195617 | 91 | 82 | 2.0 | 6.0 | 0.00 | 0.00 | 0.00 | 26 | 1019.7 |
| 20260905194503 | 89 | 79 | 2.0 | 6.0 | 0.00 | 0.00 | 0.00 | 28 | 1019.9 |
| 20260905193603 | 89 | 71 | 3.0 | 7.0 | 0.00 | 0.00 | 0.00 | 28 | 1019.9 |
| 20260905192703 | 89 | 63 | 1.0 | 5.0 | 0.00 | 0.00 | 0.00 | 27 | 1020.1 |
| 20260905192018 | 90 | 73 | 2.0 | 5.0 | 0.00 | 0.00 | 0.00 | 28 | 1019.9 |
| 20260905191118 | 91 | 80 | 1.0 | 4.0 | 0.00 | 0.00 | 0.00 | 28 | 1020.1 |
| 20260905190003 | 92 | 58 | 1.0 | 4.0 | 0.00 | 0.00 | 0.00 | 25 | 1020.2 |
| 20260905185403 | 92 | 26 | 1.0 | 4.0 | 0.00 | 0.00 | 0.00 | 26 | 1020.3 |
| 20260905184716 | 92 | 288 | 1.0 | 3.0 | 0.00 | 0.00 | 0.00 | 25 | 1020.3 |
| 20260905183603 | 92 | 64 | 1.0 | 4.0 | 0.00 | 0.00 | 0.00 | 26 | 1020.4 |